Weather History for Buffalo, WY

Change the Weather History Date:

Saturday, November 10, 2012

  Actual Average Record
Temperature  
Mean Temperature 14 °F 37 °F  
Max Temperature 24 °F 48 °F 68 °F (2007)
Min Temperature 3 °F 26 °F -2 °F (2000)
Degree Days  
Heating Degree Days 50 28  
Month to date heating degree days 262  
Since 1 July heating degree days 1168  
Cooling Degree Days 0 0  
Month to date cooling degree days 0  
Year to date cooling degree days 492  
Moisture  
Dew Point 10 °F    
Average Humidity 82    
Maximum Humidity 93    
Minimum Humidity 73    
Precipitation  
Precipitation 0.01 in 0.02 in 0.16 in (2000)
Month to date precipitation 0.16  
Year to date precipitation 12.67  
Sea Level Pressure  
Sea Level Pressure 29.78 in    
Wind  
Wind Speed 24 mph (NNW)    
Max Wind Speed 33 mph    
Max Gust Speed 45 mph    
Visibility 3 miles    
Events Fog , Snow    
T = Trace of Precipitation, MM = Missing Value Source: NWS Daily Summary

Daily Weather History Graph

Daily Weather History Graph

Search for Another Location

Airport:

Trip Planner

Search our weather history database for the weather conditions in past years. The results will help you decide how hot, cold, wet, or windy it might be!

Date:

Astronomy

Nov. 10, 2012 Rise Set
Actual Time 6:56 AM MST 4:44 PM MST
Civil Twilight 6:25 AM MST 5:15 PM MST
Nautical Twilight 5:51 AM MST 5:50 PM MST
Astronomical Twilight 5:16 AM MST 6:24 PM MST
Moon 2:57 AM MST (11/10) 2:39 PM MST (11/10)
Length of Visible Light 10h 49m
Length of Day
9h 47m
Waning Crescent, 14% of the Moon is Illuminated
Nov 10
Waning Crescent
Nov 13
New
Nov 20
First Quarter
Nov 28
Full
Dec 6
Last Quarter

Hourly Weather History & Observations

Time (MST) Temp. Windchill Dew Point Humidity Pressure Visibility Wind Dir Wind Speed Gust Speed Precip Events Conditions
12:14 AM 24.8 °F 9.0 °F 21.2 °F 86% 29.63 in 1.5 mi NNW 25.3 mph 36.8 mph 0.00 in Snow Light Snow
12:26 AM 24.8 °F 9.3 °F 21.2 °F 86% 29.62 in 1.0 mi NNW 24.2 mph 35.7 mph 0.00 in Snow Light Snow
12:34 AM 24.8 °F 10.0 °F 21.2 °F 86% 29.63 in 0.5 mi NNW 21.9 mph 35.7 mph 0.00 in Fog , Snow Snow
12:45 AM 23.0 °F 7.2 °F 21.2 °F 93% 29.63 in 0.2 mi NNW 23.0 mph 28.8 mph 0.00 in Fog , Snow Heavy Snow
12:53 AM 23.0 °F 7.2 °F 19.9 °F 88% 29.72 in 0.5 mi NNW 23.0 mph 36.8 mph 0.01 in Fog , Snow Snow
1:03 AM 23.0 °F 7.2 °F 19.4 °F 86% 29.64 in 0.8 mi NNW 23.0 mph 35.7 mph 0.00 in Snow Light Snow
1:08 AM 23.0 °F 6.9 °F 19.4 °F 86% 29.64 in 1.0 mi NNW 24.2 mph 35.7 mph 0.00 in Snow Light Snow
1:17 AM 23.0 °F 7.2 °F 19.4 °F 86% 29.64 in 1.5 mi NNW 23.0 mph 31.1 mph 0.00 in Snow Light Snow
1:26 AM 23.0 °F 5.7 °F 19.4 °F 86% 29.64 in 0.8 mi NNW 28.8 mph 38.0 mph 0.00 in Snow Light Snow
1:53 AM 21.0 °F 5.0 °F 18.0 °F 88% 29.73 in 1.2 mi NNW 21.9 mph 36.8 mph 0.00 in Snow Light Snow
2:01 AM 19.4 °F 2.5 °F 17.6 °F 93% 29.65 in 2.0 mi North 23.0 mph 35.7 mph 0.00 in Snow Light Snow
2:34 AM 19.4 °F 0.8 °F 15.8 °F 86% 29.65 in 4.0 mi North 28.8 mph 35.7 mph 0.00 in Snow Blowing Snow
2:53 AM 19.9 °F 2.5 °F 16.0 °F 85% 29.77 in 5.0 mi North 25.3 mph 36.8 mph 0.00 in Snow Blowing Snow
3:19 AM 19.4 °F -0.0 °F 15.8 °F 86% 29.64 in 2.0 mi North 32.2 mph 39.1 mph N/A Snow Blowing Snow
3:33 AM 19.4 °F 0.2 °F 15.8 °F 86% 29.64 in 1.5 mi North 31.1 mph 38.0 mph 0.00 in   Overcast
3:45 AM 19.4 °F -0.3 °F 15.8 °F 86% 29.64 in 1.5 mi North 33.4 mph 42.6 mph 0.00 in Snow Light Snow
3:53 AM 19.0 °F -0.3 °F 15.1 °F 85% 29.75 in 1.5 mi NNW 31.1 mph 42.6 mph 0.00 in   Overcast
4:04 AM 17.6 °F -2.5 °F 12.2 °F 79% 29.65 in 3.0 mi NNW 32.2 mph 36.8 mph 0.00 in Snow Blowing Snow
4:53 AM 18.0 °F -1.1 °F 12.9 °F 81% 29.77 in 4.0 mi NNW 28.8 mph 38.0 mph 0.00 in   Overcast
5:53 AM 17.1 °F -2.0 °F 12.9 °F 84% 29.78 in 5.0 mi NNW 27.6 mph 38.0 mph 0.00 in Snow Blowing Snow
6:25 AM 17.6 °F -0.3 °F 12.2 °F 79% 29.67 in 8.0 mi NNW 24.2 mph 36.8 mph 0.00 in   Overcast
6:53 AM 17.1 °F -1.7 °F 10.9 °F 77% 29.80 in 7.0 mi North 26.5 mph 35.7 mph 0.00 in Snow Light Snow
7:49 AM 15.8 °F -3.1 °F 10.4 °F 79% 29.71 in 1.8 mi NNW 25.3 mph 36.8 mph 0.00 in Snow Light Snow
7:50 AM 16.0 °F -3.5 °F 10.9 °F 81% 29.83 in 1.5 mi NNW 27.6 mph 36.8 mph 0.00 in Snow Light Snow
8:16 AM 15.8 °F -3.4 °F 10.4 °F 79% 29.71 in 1.0 mi North 26.5 mph 38.0 mph 0.00 in Snow Light Snow
8:23 AM 15.8 °F -2.7 °F 10.4 °F 79% 29.72 in 1.2 mi NNW 24.2 mph 35.7 mph 0.00 in Snow Light Snow
8:37 AM 15.8 °F -3.4 °F 10.4 °F 79% 29.73 in 0.8 mi NNW 26.5 mph 35.7 mph 0.00 in Snow Light Snow
8:53 AM 15.1 °F -5.0 °F 10.9 °F 84% 29.84 in 0.5 mi NNW 28.8 mph 43.7 mph 0.00 in Fog , Snow Snow
9:33 AM 15.8 °F -3.4 °F 10.4 °F 79% 29.71 in 1.0 mi NNW 26.5 mph 36.8 mph 0.00 in Snow Light Snow
9:45 AM 15.8 °F -3.7 °F 10.4 °F 79% 29.72 in 1.5 mi NNW 27.6 mph 36.8 mph 0.00 in Snow Light Snow
9:53 AM 15.1 °F -4.7 °F 10.0 °F 80% 29.86 in 1.2 mi NNW 27.6 mph 38.0 mph 0.00 in Snow Light Snow
10:08 AM 15.8 °F -2.7 °F 10.4 °F 79% 29.72 in 1.2 mi NNW 24.2 mph 36.8 mph 0.00 in Snow Light Snow
10:17 AM 15.8 °F -4.4 °F 10.4 °F 79% 29.72 in 1.0 mi NNW 29.9 mph 39.1 mph 0.00 in Snow Light Snow
10:26 AM 15.8 °F -4.4 °F 10.4 °F 79% 29.72 in 0.8 mi NNW 29.9 mph 39.1 mph 0.00 in Snow Light Snow
10:32 AM 15.8 °F -5.0 °F 10.4 °F 79% 29.72 in 1.0 mi NNW 32.2 mph 38.0 mph 0.00 in Snow Light Snow
10:41 AM 15.8 °F -4.1 °F 10.4 °F 79% 29.71 in 1.5 mi NNW 28.8 mph 39.1 mph 0.00 in Snow Light Snow
10:53 AM 15.1 °F -5.9 °F 10.0 °F 80% 29.84 in 1.0 mi North 32.2 mph 39.1 mph 0.00 in Snow Light Snow
11:22 AM 15.8 °F -5.0 °F 8.6 °F 73% 29.71 in 1.2 mi North 32.2 mph 41.4 mph 0.00 in Snow Light Snow
11:44 AM 14.0 °F -7.7 °F 8.6 °F 79% 29.71 in 0.8 mi North 33.4 mph 44.9 mph 0.00 in Snow Light Snow
11:53 AM 14.0 °F -7.7 °F 9.0 °F 80% 29.85 in 0.8 mi North 33.4 mph 43.7 mph 0.00 in Snow Light Snow
12:06 PM 15.8 °F -4.4 °F 8.6 °F 73% 29.71 in 1.0 mi NNW 29.9 mph 42.6 mph 0.00 in Snow Light Snow
12:16 PM 15.8 °F -3.7 °F 8.6 °F 73% 29.71 in 1.5 mi NNW 27.6 mph 38.0 mph 0.00 in Snow Light Snow
12:25 PM 14.0 °F -5.8 °F 8.6 °F 79% 29.72 in 1.2 mi NNW 26.5 mph 36.8 mph 0.00 in Snow Light Snow
12:35 PM 14.0 °F -6.8 °F 8.6 °F 79% 29.72 in 1.5 mi North 29.9 mph 36.8 mph 0.00 in Snow Light Snow
12:46 PM 14.0 °F -7.4 °F 8.6 °F 79% 29.71 in 1.2 mi NNW 32.2 mph 39.1 mph 0.00 in Snow Light Snow
12:53 PM 14.0 °F -7.4 °F 9.0 °F 80% 29.86 in 1.2 mi NNW 32.2 mph 38.0 mph 0.00 in Snow Light Snow
1:09 PM 14.0 °F -5.8 °F 8.6 °F 79% 29.73 in 2.0 mi NNW 26.5 mph 38.0 mph 0.00 in Snow Light Snow
1:26 PM 14.0 °F -5.5 °F 8.6 °F 79% 29.75 in 2.5 mi NNW 25.3 mph 36.8 mph 0.00 in Snow Light Snow
1:38 PM 14.0 °F -6.2 °F 8.6 °F 79% 29.75 in 1.5 mi North 27.6 mph 34.5 mph 0.00 in Snow Light Snow
1:48 PM 14.0 °F -6.5 °F 8.6 °F 79% 29.74 in 2.0 mi North 28.8 mph 33.4 mph 0.00 in Snow Light Snow
1:53 PM 14.0 °F -6.8 °F 8.1 °F 77% 29.90 in 1.8 mi North 29.9 mph 33.4 mph 0.00 in Snow Light Snow
2:01 PM 14.0 °F -5.1 °F 8.6 °F 79% 29.76 in 2.5 mi North 24.2 mph 34.5 mph 0.00 in Snow Light Snow
2:22 PM 12.2 °F -8.9 °F 6.8 °F 79% 29.77 in 3.0 mi North 28.8 mph 34.5 mph 0.00 in Snow Light Snow
2:53 PM 12.9 °F -5.7 °F 8.1 °F 81% 29.93 in 2.5 mi NNW 21.9 mph 34.5 mph 0.00 in Snow Light Snow
3:04 PM 12.2 °F -7.1 °F 6.8 °F 79% 29.77 in 4.0 mi NNW 23.0 mph 33.4 mph 0.00 in Snow Light Snow
3:15 PM 12.2 °F -8.2 °F 6.8 °F 79% 29.77 in 5.0 mi NNW 26.5 mph 38.0 mph 0.00 in   Overcast
3:53 PM 10.9 °F -7.9 °F 6.1 °F 81% 29.97 in 10.0 mi North 20.7 mph 31.1 mph 0.00 in   Overcast
4:05 PM 10.4 °F -9.1 °F 6.8 °F 85% 29.80 in 9.0 mi North 21.9 mph 33.4 mph 0.00 in   Mostly Cloudy
4:53 PM 8.1 °F -11.2 °F 3.9 °F 83% 30.00 in 10.0 mi NNW 19.6 mph 25.3 mph 0.00 in   Clear
5:12 PM 8.6 °F -11.0 °F 5.0 °F 85% 29.82 in 7.0 mi North 20.7 mph 29.9 mph 0.00 in Snow Light Snow
5:22 PM 8.6 °F -10.5 °F 5.0 °F 85% 29.83 in 3.0 mi North 19.6 mph 31.1 mph 0.00 in Snow Light Snow
5:53 PM 10.0 °F -10.0 °F 5.0 °F 80% 30.01 in 4.0 mi NNW 23.0 mph 33.4 mph 0.00 in Snow Light Snow
6:10 PM 8.6 °F -11.9 °F 5.0 °F 85% 29.84 in 8.0 mi NNW 23.0 mph 29.9 mph 0.00 in   Mostly Cloudy
6:18 PM 8.6 °F -11.4 °F 5.0 °F 85% 29.84 in 8.0 mi NNW 21.9 mph 29.9 mph 0.00 in Snow Light Snow
6:27 PM 8.6 °F -11.0 °F 3.2 °F 79% 29.84 in 9.0 mi NNW 20.7 mph 26.5 mph 0.00 in   Partly Cloudy
6:53 PM 9.0 °F -10.0 °F 3.9 °F 80% 30.04 in 10.0 mi North 19.6 mph - 0.00 in   Scattered Clouds
7:22 PM 8.6 °F -6.3 °F 5.0 °F 85% 29.87 in 9.0 mi NW 11.5 mph - N/A   Overcast
7:42 PM 8.6 °F -2.6 °F 5.0 °F 85% 29.88 in 2.5 mi NNW 6.9 mph - 0.00 in Snow Light Snow
7:50 PM 10.4 °F 4.0 °F 5.0 °F 79% 29.88 in 7.0 mi ENE 3.5 mph - 0.00 in Snow Light Snow
7:53 PM 9.0 °F 2.4 °F 5.0 °F 84% 30.07 in 9.0 mi East 3.5 mph - 0.00 in   Overcast
8:12 PM 8.6 °F 2.0 °F 5.0 °F 85% 29.88 in 8.0 mi North 3.5 mph - N/A   Overcast
9:08 PM 8.6 °F 0.1 °F 5.0 °F 85% 29.88 in 2.0 mi North 4.6 mph - 0.00 in Snow Light Snow
9:15 PM 8.6 °F 0.1 °F 5.0 °F 85% 29.88 in 1.5 mi NNW 4.6 mph - 0.00 in Snow Light Snow
9:53 PM 8.1 °F 1.4 °F 3.9 °F 83% 30.07 in 1.5 mi North 3.5 mph - 0.00 in Snow Light Snow
10:22 PM 8.6 °F -2.6 °F 3.2 °F 79% 29.87 in 2.5 mi North 6.9 mph - 0.00 in Snow Light Snow
10:30 PM 8.6 °F 0.1 °F 3.2 °F 79% 29.87 in 4.0 mi North 4.6 mph - 0.00 in Snow Light Snow
10:53 PM 8.1 °F -0.5 °F 3.9 °F 83% 30.07 in 5.0 mi NNE 4.6 mph - 0.00 in Snow Light Snow
11:43 PM 5.0 °F - 1.4 °F 85% 29.87 in 10.0 mi Calm Calm - 0.00 in   Scattered Clouds
11:53 PM 3.9 °F - 1.0 °F 88% 30.09 in 10.0 mi Calm Calm - 0.00 in   Clear